Find Kosmos-2360

NORAD ID: 25406 Int'l Des: 1998-045 Owner: GRUR Country: RU operational
LEOCIRCULAR

Current View

Loading 3D Globe...

About Kosmos-2360

Kosmos-2360 (NORAD 25406) is a satellite launched Jul 28, 1998 by GRUR of RU. It operates in LEO, CIRCULAR orbit with a mass of 3250.00 kg.

Upcoming Passes

Passes for default location (London). Set your location on the main map for personalized predictions.

Altitude History

Loading altitude history...

Two-Line Element Set

1 25406U 98045A 26195.14324130 -.00000307 00000-0 -13961-3 0 9999
2 25406 70.7246 220.8347 0008784 308.9060 51.1276 14.12407625441849
Epoch: Jul 14, 2026 • Age: 10 hours

Current Status

Altitude 857.2 km
Apogee / Perigee N/A
Velocity 7.43 km/s
Sub-Earth Point 41.27°N, 97.58°E
Launch Date Jul 28, 1998
Age 27.9 years
Type other

Technical Details

Classification Payload
Mass 3250.00 kg
Dry Mass 3250.00 kg
Total Mass 3250.00 kg
Length 4.50 m
Diameter 1.40 m
Span 22.70 m
Shape Cyl + 2 Pan + Ant
Manufacturer YUZHUA
Bus Type Tselina-2
Phase Status Unknown Transfer Status
Owner/State GRUR/RU

Most Searched